Powrót do katalogu

ONEWEB-0522

AktywnyŁącznośćPO
NORAD 54140·PAYLOAD·🇬🇧 United Kingdom

Wystrzelony Oct 22, 2022 z Satish Dhawan Space Centre

Loading…

Następne Przeloty (najbliższe 24 godziny)

TLE

ŚwieżeSource: CelesTrak SupGP

Epoka: Sep 15, 2026, 03:27 UTC

1 54140C 22138AD  26258.14391620 -.00002581  00000+0 -64536-2 0  2580
2 54140  87.9121 287.0435 0002067  90.2213 302.6559 13.19732213    18

Śledź ONEWEB-0522 w czasie rzeczywistym z AllMySat

Download on the App Store